Location: Bosmont
(49.7318°N, 3.8587°E)
Time: 10:36:39
(UTC+00:00)

Lacrosse 5 - Pass Details

Date: 08 February 2023
Orbit: 714 x 724 km, 57.0° (Epoch: 09 March)

Event Time Altitude Azimuth Distance (km) Brightness Sun altitude
Rises 19:09:51 0° 276° (W) 3,138 6.7 -22.8°
Reaches altitude 10° 19:12:24 10° 284° (WNW) 2,219 5.5 -23.2°
Maximum altitude 19:17:10 38° 353° (N) 1,108 2.9 -23.9°
Enters shadow 19:18:14 34° 21° (NNE) 1,190 2.8 -24.1°
